Location: Ariel
(45.9570°N, 122.5700°W)
Time: 15:28:38
(UTC-07:00)

Vanguard 3 - Pass Details

Date: 29 August 2019
Orbit: 508 x 3263 km, 33.4° (Epoch: 21 September)

Event Time Altitude Azimuth Distance (km) Brightness Sun altitude
Rises 20:07:59 0° 263° (W) 4,391 12.3 -3.1°
Reaches altitude 10° 20:12:43 10° 244° (WSW) 2,862 10.7 -3.9°
Maximum altitude 20:16:26 16° 209° (SSW) 2,072 9.4 -4.5°
Drops below altitude 10° 20:19:23 10° 172° (S) 2,155 9.1 -5.0°
Sets 20:22:12 0° 148° (SSE) 2,830 9.5 -5.5°
Enters shadow 20:22:15 - 148° (SSE) 2,842 9.5 -5.5°
